{"data":{"norad_id":61001,"epoch":"2026-05-24T16:42:23.658624Z","epoch_age_seconds":111691,"freshness":"FRESH","line1":"1 61001U 24158M   26144.69610716  .00000104  00000+0  57152-5 0  9990","line2":"2 61001  53.1599 266.4762 0001052  72.2142 287.8990 15.69706323 99521","mean_motion":15.69706323,"eccentricity":0.0001052,"inclination_deg":53.1599,"raan_deg":266.4762,"arg_perigee_deg":72.2142,"mean_anomaly_deg":287.899,"bstar":5.7152e-6,"rev_number":9952,"period_min":91.736905107695,"perigee_km":359.02844823336,"apogee_km":360.44609698032,"semimajor_km":6737.8742726068,"source":"CELESTRAK","updated_at":"2026-05-25T13:38:19.324620Z"}}